Regional Weather Roundup
Issued by NWS Jackson, KY

Home | Current Version | Previous Version | Text Only | Print | Product List | Glossary Off
Versions: 1 2 3 4 5 6 7 8 9 10 11 12 13 14 15 16 17 18 19 20 21 22 23 24 25 26 27 28 29 30 31 32 33 34 35 36 37 38 39 40 41 42 43 44 45 46 47 48 49 50

000
ASUS43 KJKL 050410
RWRJKL

EAST KENTUCKY HOURLY WEATHER ROUNDUP
NATIONAL WEATHER SERVICE JACKSON KY
1200 AM EDT SUN JUL 05 2015

NOTE: "FAIR" INDICATES FEW OR NO CLOUDS BELOW 12,000 FEET WITH
NO SIGNIFICANT WEATHER AND/OR OBSTRUCTIONS TO VISIBILITY.

* THESE REPORTS ARE NOT UNDER NWS QUALITY CONTROL AND MAY NOT
  REPORT WEATHER SUCH AS PRECIPITATION AND FOG.

KYZ079-080-083-085-087-088-110-112-115-119-120-050500
...EASTERN KENTUCKY...

CITY           SKY/WX    TMP DP  RH WIND       PRES   REMARKS
JACKSON        CLOUDY    71  67  87 CALM      30.08R
LONDON         CLOUDY    71  65  81 SE3       30.06S
SOMERSET*      RAIN      70  70 100 S3        30.06S
MONTICELLO*    CLOUDY    70  70 100 CALM      30.07S
MIDDLESBORO*   CLOUDY    69  69  98 CALM      30.08S FOG
HARLAN APT*      N/A     68  68 100 CALM      30.10S VSB 1
HAZARD APT*    FOG       70  70 100 CALM      30.07S VSB 3/4
BLACK MTN*       N/A     63  63 100 CALM        N/A
PIKEVILLE APT* MOCLDY    70  68  94 CALM      30.09R
BIG SANDY*     FOG       68  68  99 CALM      30.08R VSB<1/4
MOREHEAD APT*  MOCLDY    70  66  88 CALM      30.09R FOG
$$

KYZ035-036-041-042-044-050-067-078-099-050500
...CENTRAL KENTUCKY...

CITY           SKY/WX    TMP DP  RH WIND       PRES   REMARKS
MT STERLING*   CLOUDY    68  68 100 SE3       30.08R FOG
FLEMING/MASON* CLEAR     68  66  94 E3        30.08R FOG
DANVILLE*      CLOUDY    70  68  94 CALM      30.06F FOG
RICHMOND*      CLOUDY    70  66  88 CALM      30.05S
LEXINGTON      CLOUDY    72  66  81 E3        30.06R HAZE
FRANKFORT      CLOUDY    71  66  84 CALM      30.04R HAZE
$$

KYZ091>093-OHZ055-061-077-WVZ005-015-034-035-042-050500
...SOUTHERN OHIO/WEST VIRGINIA...

CITY           SKY/WX    TMP DP  RH WIND       PRES   REMARKS
COVINGTON      CLOUDY    70  62  76 CALM      30.06R
COLUMBUS       CLOUDY    66  57  72 CALM      30.06R
DAYTON         PTCLDY    70  59  68 SE6       30.08R
WILMINGTON     MOCLDY    65  58  78 CALM      30.07R
HUNTINGTON     MOCLDY    68  67  96 E3        30.06R FOG
CHARLESTON     MOCLDY    68  66  93 CALM      30.07R
PINEVILLE*     CLOUDY    66  66 100 MISG      30.16S FOG
BECKLEY        CLOUDY    64  62  93 CALM      30.14S FOG
BLUEFIELD      CLOUDY    67  62  84 CALM      30.16S
$$

VAZ002-007-008-TNZ017-027-036-066-071-050500
...SOUTHWEST VIRGINIA/EAST TENNESSEE...

CITY           SKY/WX    TMP DP  RH WIND       PRES   REMARKS
WISE*          CLOUDY    66  66 100 SW5       30.16R
JONESVILLE*      N/A    N/A N/A N/A MISG        N/A
ABINGDON*      CLOUDY    69  69  99 CALM      30.14R
BRISTOL        CLOUDY    70  68  93 CALM      30.10S FOG
KNOXVILLE      LGT RAIN  73  69  87 S5        30.05R
OAK RIDGE      LGT RAIN  73  70  90 CALM      30.07R
CROSSVILLE     LGT RAIN  71  67  87 CALM      30.09R FOG
NASHVILLE      LGT RAIN  70  69  97 CALM      30.02F
$$

...KEY TO REMARKS...
VSB - VISIBILITY IN MILES
WCI - WIND CHILL INDEX
HX  - HEAT INDEX

$$



USA.gov is the U.S. government's official web portal to all federal, state and local government web resources and services.